GAOFEN-6

Last updated on Thu Jul 03 2025 00:02:30 GMT+0000 (Coordinated Universal Time)

1 43484U 18048A 25183.60730727 .00000535 00000+0 83698-4 0 9995 2 43484 97.8224 253.1331 0011789 219.1640 140.8718 14.76584020381800
UTC large
Height (km)
Speed (km/s)
/
Latitude / Longitude
Inclination (degrees)
Orbital Period (minutes)
Azimuth
Elevation
Range (km)
Doppler Factor

Next 0 passes for location: London (51.5072 / 0.1276)

Sorry there are no passes over London.